This is the latest recevied weather packets stored in our database for station/object KD4EED. If no packets are shown the sender has not sent any weather packets the latest 10 day(s).
| Time | Temp. | Humidity | Pressure | Rain* | Wind** | Luminosity | Snow |
|---|---|---|---|---|---|---|---|
| 1777398892 | 22.22° C | 42% | 1015.3 hPa | - | - | 655 W/m² | - |
| 1777398589 | 21.67° C | 44% | 1015.3 hPa | - | - | 649 W/m² | - |
| 1777398285 | 21.67° C | 42% | 1015.3 hPa | - | - | 642 W/m² | - |
| 1777397983 | 21.67° C | 43% | 1015.5 hPa | - | - | 637 W/m² | - |
| 1777397678 | 21.67° C | 45% | 1015.4 hPa | - | - | 630 W/m² | - |
| 1777397375 | 20.56° C | 45% | 1015.3 hPa | - | - | 619 W/m² | - |
| 1777397071 | 20.56° C | 48% | 1015.5 hPa | - | - | 615 W/m² | - |
| 1777396768 | 20° C | 51% | 1015.5 hPa | - | - | 603 W/m² | - |
| 1777396465 | 19.44° C | 49% | 1015.6 hPa | - | - | 594 W/m² | - |
| 1777396161 | 19.44° C | 50% | 1015.4 hPa | - | - | 582 W/m² | - |
| 1777395857 | 18.89° C | 52% | 1015.3 hPa | - | - | 569 W/m² | - |
| 1777395553 | 18.33° C | 54% | 1015.6 hPa | - | - | 557 W/m² | - |
| 1777395250 | 17.78° C | 54% | 1015.6 hPa | - | - | 546 W/m² | - |
| 1777394948 | 17.22° C | 55% | 1015.6 hPa | - | - | 533 W/m² | - |
| 1777394643 | 17.22° C | 58% | 1015.6 hPa | - | - | 455 W/m² | - |
| 1777394340 | 16.67° C | 57% | 1015.7 hPa | - | - | 69 W/m² | - |
| 1777394036 | 16.67° C | 60% | 1015.8 hPa | - | - | 67 W/m² | - |
| 1777393731 | 16.11° C | 60% | 1016 hPa | - | - | 65 W/m² | - |
| 1777393426 | 16.11° C | 61% | 1015.8 hPa | - | - | 63 W/m² | - |
| 1777393122 | 15.56° C | 64% | 1015.9 hPa | - | - | 62 W/m² | - |
| 1777392818 | 15.56° C | 63% | 1015.9 hPa | - | - | 61 W/m² | - |
| 1777392514 | 15° C | 67% | 1015.9 hPa | - | - | 59 W/m² | - |
| 1777392210 | 15° C | 68% | 1016.1 hPa | - | - | 58 W/m² | - |
| 1777391906 | 15° C | 66% | 1016.1 hPa | - | - | 57 W/m² | - |
| 1777391606 | 14.44° C | 69% | 1016 hPa | - | - | 56 W/m² | - |
* Rain since midnight (hover to see other rain measurements)
** Current wind speed in m/s (hover to see current wind gust speed)